This demonstration page uses our WeatherBlox Daily Observations layout. Learn more.

Left ArrowRight Arrow

Hourly Observations for June 25, 2022

Temp ( °F °C ) Dew Point ( °F °C ) Humidity (%) Winds ( mph kmh ) Pressure ( in mb ) Visibility ( mi km ) Precip ( " mm )
12:53 am 00:53 Clear 86 30 44 6.7 23 23 SSE 17 28 29.75 1008 10 16 0.00 0.00
1:53 am 01:53 Clear 84 28.9 46 7.8 27 27 SSE 14 22 29.76 1008 10 16 0.00 0.00
2:53 am 02:53 Clear 81 27.2 46 7.8 29 29 SE 9 15 29.77 1008 10 16 0.00 0.00
3:53 am 03:53 Clear 79 26.1 46 7.8 31 31 SE 9 15 29.77 1008 10 16 0.00 0.00
4:53 am 04:53 Clear 78 25.6 47 8.3 33 33 ESE 12 19 29.77 1008 10 16 0.00 0.00
5:53 am 05:53 Clear 77 25 47 8.3 35 35 SE 12 19 29.78 1009 10 16 0.00 0.00
6:53 am 06:53 Sunny 77 25 46 7.8 33 33 SE 14 22 29.79 1009 10 16 0.00 0.00
7:53 am 07:53 Sunny 77 25 48 8.9 36 36 SE 17 28 29.81 1010 10 16 0.00 0.00
8:53 am 08:53 Sunny 81 27.2 50 10 34 34 SE 20 31 29.84 1010 10 16 0.00 0.00
9:53 am 09:53 Sunny 85 29.4 50 10 30 30 SSE 20 31 29.83 1010 10 16 0.00 0.00
10:53 am 10:53 Sunny 89 31.7 50 10 26 26 SSE 20 31 29.83 1010 10 16 0.00 0.00
11:53 am 11:53 Sunny 93 33.9 49 9.4 22 22 ESE 12 19 29.84 1010 10 16 0.00 0.00
12:53 pm 12:53 Sunny 94 34.4 47 8.3 20 20 SE 12 19 29.83 1010 10 16 0.00 0.00
1:53 pm 13:53 Sunny 96 35.6 45 7.2 17 17 E 3 6 29.81 1010 10 16 0.00 0.00
2:53 pm 14:53 Sunny 98 36.7 41 5 14 14 ESE 10 17 29.79 1009 10 16 0.00 0.00
3:53 pm 15:53 Sunny 100 37.8 36 2.2 11 11 ESE 12 19 29.78 1008 10 16 0.00 0.00
4:53 pm 16:53 Sunny 100 37.8 34 1.1 10 10 ESE 10 17 29.76 1008 10 16 0.00 0.00
5:53 pm 17:53 Sunny 100 37.8 37 2.8 11 11 SE 20 31 29.75 1007 10 16 0.00 0.00
6:53 pm 18:53 Sunny 99 37.2 35 1.7 11 11 SE 18 30 29.75 1008 10 16 0.00 0.00
7:53 pm 19:53 Sunny 97 36.1 33 0.6 10 10 SE 18 30 29.77 1008 10 16 0.00 0.00
8:53 pm 20:53 Sunny 93 33.9 33 0.6 12 12 SE 10 17 29.80 1009 10 16 0.00 0.00
9:53 pm 21:53 Clear 90 32.2 35 1.7 14 14 ESE 8 13 29.82 1010 10 16 0.00 0.00
10:53 pm 22:53 Clear 86 30 36 2.2 17 17 ESE 7 11 29.86 1011 10 16 0.00 0.00
11:53 pm 23:53 Clear 84 28.9 37 2.8 19 19 SE 9 15 29.88 1012 10 16 0.00 0.00

Powered by AerisWeather